#timestamp,LO_Frequency,Hit,StdDev 
1585980015.7,286047000.5,N
1585980035.6,286047001.1,N
1585980055.4,286047002.1,N
1585980075.3,286047002.4,N
1585980095.1,286047000.2,N
1585980096.0,286047000.2,N
1585980115.8,286046998.1,N
1585980135.7,286047001.1,N
1585980155.5,286047000.8,N
1585980175.4,286047001.5,N
1585980195.2,286047005.9,Y
1585980215.0,286047005.2,P
1585980215.9,286047005.2,N
1585980235.8,286047003.2,N
1585980255.6,286047005.5,N
1585980275.5,286047003.6,N
1585980295.3,286047005.5,Y
1585980315.1,286047000.5,P
1585980335.9,286047001.1,N
1585980355.7,286047002.5,N
1585980375.5,286047000.5,N
1585980395.4,286047000.7,N
1585980415.2,286047000.4,N
1585980435.1,286046999.8,N
1585980436.0,286046999.8,N
1585980455.8,286047001.0,N
1585980475.7,286046995.6,Y
1585980495.5,286046996.2,P
1585980515.3,286046995.1,N
1585980535.2,286046998.3,N
1585980555.9,286046998.9,N
1585980575.7,286047002.7,N
1585980595.6,286047001.7,N
1585980615.4,286047001.5,N
1585980635.3,286047000.3,N
1585980655.1,286046999.1,N
1585980675.8,286047000.7,N
1585980695.7,286047000.0,N
1585980715.5,286046998.4,N
1585980735.4,286046998.7,N
1585980755.2,286046999.9,N
1585980775.0,286047002.0,N
1585980775.9,286047002.0,N
1585980795.8,286047001.5,N
1585980815.6,286047002.2,N
1585980835.4,286047001.4,N
1585980855.3,286047005.5,N
1585980875.1,286047003.5,N
1585980895.9,286047005.7,N
1585980915.7,286047007.2,N
1585980935.5,286047007.6,N
1585980955.4,286047003.0,N
1585980975.2,286047006.0,N
1585980995.1,286047003.7,N
1585980996.0,286047003.7,N
1585981015.8,286047004.0,N
1585981035.6,286047002.4,N
1585981055.5,286047001.5,N
1585981075.3,286047004.2,N
1585981095.1,286047002.2,N
1585981115.9,286046999.7,N
1585981135.7,286047001.6,N
1585981155.6,286047003.9,N
1585981175.4,286047001.3,N
1585981195.2,286047004.1,N
1585981215.1,286047001.5,N
1585981216.0,286047001.5,N
1585981235.8,286047004.4,N
1585981255.7,286047002.0,N
1585981275.5,286047002.7,N
1585981295.3,286046999.8,N
1585981315.2,286046998.3,N
1585981335.0,286047002.8,N
1585981335.9,286047002.8,N
1585981355.8,286047001.3,N
1585981375.6,286047003.1,N
1585981395.4,286047003.6,N
1585981415.3,286047004.4,N
1585981435.1,286047002.1,N
1585981455.8,286047002.1,N
1585981475.7,286047002.2,N
1585981495.5,286047001.9,N
1585981515.4,286047002.3,N
1585981535.2,286047001.5,N
1585981555.0,286047000.1,N
1585981555.9,286047000.1,N
1585981575.8,286046998.1,N
1585981595.6,286046999.9,N
1585981615.4,286047000.7,N
1585981635.3,286046998.6,N
1585981655.1,286046998.1,N
1585981675.9,286046998.4,N
1585981695.7,286047000.7,N
1585981715.5,286046999.7,N
1585981735.4,286047000.2,N
1585981755.2,286047001.8,N
1585981775.3,286046999.7,N
1585981795.1,286047000.6,N
1585981815.9,286047002.2,N
1585981835.7,286047001.1,N
1585981855.6,286047001.0,N
1585981875.4,286047002.2,N
1585981895.2,286047000.8,N
1585981915.1,286047001.8,N
1585981916.0,286047001.8,N
1585981935.8,286047003.7,N
1585981955.6,286047004.1,N
1585981975.5,286047003.9,N
1585981995.3,286047002.1,N
1585982015.2,286046998.7,N
1585982035.9,286047000.1,N
1585982055.7,286047004.2,N
1585982075.6,286047002.0,N
1585982095.4,286046999.7,N
1585982115.3,286047002.0,N
1585982135.1,286047004.1,N
1585982155.8,286047003.1,N
1585982175.7,286047005.3,Y
1585982195.5,286047001.6,P
1585982215.4,286047001.6,P
1585982235.2,286046999.9,N
1585982255.0,286046999.8,N
1585982255.9,286046999.8,N
1585982275.8,286047000.1,N
1585982295.6,286047002.5,Y
1585982315.5,286047002.8,P
1585982335.3,286047002.7,N
1585982355.1,286047002.1,N
1585982375.9,286047001.8,N
1585982395.7,286047001.9,N
1585982415.5,286047002.2,N
1585982435.4,286047001.4,N
1585982455.2,286047001.5,N
1585982475.1,286047000.1,N
1585982476.0,286047000.1,N
1585982495.8,286047002.4,N
1585982515.6,286047000.7,N
1585982535.5,286047000.6,N
1585982555.3,286047001.6,N
1585982575.2,286047002.8,Y
1585982595.9,286047001.0,P
1585982615.7,286047000.2,N
1585982635.6,286047000.3,N
1585982655.4,286047002.3,Y
1585982675.2,286047002.2,P
1585982695.1,286047002.0,N
1585982696.0,286047002.0,P
1585982715.8,286047011.9,Y
1585982735.7,286046996.7,P
1585982755.5,286046996.0,N
1585982775.3,286046996.1,N
1585982795.2,286046996.6,N
1585982815.0,286046998.2,N
1585982815.9,286046998.2,N
1585982835.8,286046997.4,N
1585982855.6,286046995.0,N
1585982875.4,286046997.6,N
1585982895.3,286046998.0,N
1585982915.1,286046995.5,N
1585982935.9,286046995.8,N
1585982955.7,286046995.1,N
1585982975.5,286046999.2,N
1585982995.4,286046998.4,N
1585983015.2,286046998.2,N
1585983035.0,286046998.5,N
1585983036.0,286046998.5,N
1585983055.8,286046999.4,N
1585983075.6,286046999.1,N
1585983095.5,286046997.1,N
1585983115.3,286046999.4,N
1585983135.1,286046998.5,N
1585983155.9,286046998.5,N
1585983175.7,286046999.5,N
1585983195.6,286046998.9,N
1585983215.4,286046999.1,N
1585983235.2,286047000.9,N
1585983255.1,286047000.2,N
1585983256.0,286047000.2,N
1585983275.8,286047001.1,N
1585983295.6,286047001.1,N
1585983315.5,286046998.6,N
1585983335.3,286047001.1,N
1585983355.2,286046999.4,N
1585983375.9,286046998.7,N
1585983395.7,286047001.0,N
1585983415.6,286047000.5,N
1585983435.4,286047000.1,N
1585983455.3,286046998.4,N
1585983475.1,286046997.9,N
1585983476.0,286046997.9,N
1585983495.8,286046997.9,N
1585983515.7,286046994.9,Y
1585983535.5,286046997.5,P
1585983555.3,286046999.2,N
1585983575.2,286046996.6,P
1585983595.0,286046999.6,N
1585983595.9,286046999.6,N
